Find Hai Yang 2-04

NORAD ID: 48621 Int'l Des: 2021-043 Owner: GYZ/CASC Country: CN operational
LEOCIRCULAR

現在のビュー

3D地球を読み込み中...

Hai Yang 2-04について

説明を読み込み中...

次回通過

Passes for default location (London). Set your location on the main map for personalized predictions.

高度履歴

Loading altitude history...

軌道要素

1 48621U 21043A 26150.21879664 .00000004 00000-0 77574-4 0 9996
2 48621 65.9997 349.4365 0011353 270.9984 88.9784 13.83374670254067
Epoch: May 30, 2026 • Age: 11 hours

現在のステータス

高度 970.8 km
速度 7.37 km/s
衛星直下点 66.04°N, 46.65°W
打ち上げ日 May 19, 2021
運用期間 5 years
タイプ other

技術仕様

分類 Payload
質量 1500.00 kg
乾燥質量 1500.00 kg
総質量 1500.00 kg
長さ 1.00 m
直径 1.00 m
スパン 4.00 m
形状 Box + 2 Pan
製造者 SISE
バスタイプ CAST-968
フェーズステータス In Orbit
所有者/国 GYZ/CASC/CN

Most Searched